This demonstration page uses our WeatherBlox Daily Observations layout. Learn more.

Left ArrowRight Arrow

Hourly Observations for April 22, 2020

Temp ( °F °C ) Dew Point ( °F °C ) Humidity (%) Winds ( mph kmh ) Pressure ( in mb ) Visibility ( mi km ) Precip ( " mm )
12:54 am 00:54 Clear 60 15.6 36 2.2 41 41 S 15 24 29.87 1011 10 16.0934 0 0
1:54 am 01:54 Clear 59 15 37 2.8 44 44 S 15 24 29.86 1011 10 16.0934 0 0
2:54 am 02:54 Clear 58 14.4 37 2.8 46 46 SSW 14 22 29.84 1011 10 16.0934 0 0
3:54 am 03:54 Clear 57 13.9 38 3.3 49 49 SSW 14 22 29.85 1011 10 16.0934 0 0
4:54 am 04:54 Clear 55 12.8 39 3.9 55 55 SSW 10 17 29.83 1010 10 16.0934 0 0
5:54 am 05:54 Clear 55 12.8 39 3.9 55 55 SW 6 9 29.83 1010 10 16.0934 0 0
6:54 am 06:54 Sunny 51 10.6 39 3.9 64 64 VRB 3 6 29.82 1010 10 16.0934 0 0
7:54 am 07:54 Sunny 56 13.3 42 5.6 60 60 SW 6 9 29.82 1010 10 16.0934 0 0
8:54 am 08:54 Sunny 63 17.2 45 7.2 52 52 SW 8 13 29.82 1010 10 16.0934 0 0
9:54 am 09:54 Sunny 70 21.1 44 6.7 39 39 WSW 18 30 29.79 1009 10 16.0934 0 0
10:54 am 10:54 Sunny 72 22.2 45 7.2 38 38 SW 17 28 29.79 1009 10 16.0934 0 0
11:54 am 11:54 Sunny 75 23.9 44 6.7 33 33 SSW 13 20 29.78 1008 10 16.0934 0 0
12:54 pm 12:54 Sunny 75 23.9 45 7.2 34 34 VRB 6 9 29.75 1007 10 16.0934 0 0
1:54 pm 13:54 Mostly Sunny 77 25 45 7.2 32 32 S 13 20 29.72 1006 10 16.0934 0 0
2:54 pm 14:54 Partly Cloudy 75 23.9 43 6.1 32 32 Calm 29.7 1006 10 16.0934 0 0
3:54 pm 15:54 Mostly Sunny 76 24.4 45 7.2 33 33 SSE 9 15 29.68 1005 10 16.0934 0 0
4:54 pm 16:54 Partly Cloudy 76 24.4 45 7.2 33 33 S 6 9 29.66 1004 10 16.0934 0 0
5:54 pm 17:54 Mostly Sunny 76 24.4 44 6.7 32 32 S 5 7 29.65 1004 10 16.0934 0 0
6:54 pm 18:54 Sunny 70 21.1 48 8.9 46 46 S 15 24 29.65 1004 10 16.0934 0 0
7:54 pm 19:54 Sunny 63 17.2 52 11.1 68 68 S 13 20 29.67 1005 10 16.0934 0 0
8:54 pm 20:54 Clear 60 15.6 51 10.6 72 72 SSW 7 11 29.69 1006 10 16.0934 0 0
9:54 pm 21:54 Clear 59 15 51 10.6 75 75 WSW 7 11 29.71 1006 10 16.0934 0 0
10:54 pm 22:54 Clear 56 13.3 50 10 81 81 SSW 6 9 29.71 1006 10 16.0934 0 0
11:54 pm 23:54 Clear 56 13.3 51 10.6 84 84 SW 5 7 29.7 1006 10 16.0934 0 0

Powered by AerisWeather